Location: Croydon
(51.3762°N, 0.0982°W)
Time: 13:25:05
(UTC+00:00)

Altair - Pass Details

Date: 22 November 2019
Orbit: 1502 x 1682 km, 47.2° (Epoch: 07 December)

Event Time Altitude Azimuth Distance (km) Brightness Sun altitude
Rises 02:44:03 0° 231° (SW) 4,650 - -43.4°
Reaches altitude 10° 02:47:10 10° 227° (SW) 3,659 - -42.9°
Maximum altitude 02:55:54 51° 155° (SSE) 1,824 - -41.7°
Exits shadow 02:57:28 47° 126° (SE) 1,913 8.0 -41.4°
Drops below altitude 10° 03:04:41 10° 83° (E) 3,679 10.1 -40.4°
Sets 03:07:50 0° 79° (ENE) 4,677 10.9 -39.9°
